Tracking 17884 objects as of 7-December-2016
HD Live streaming from Space Station
objects crossing your sky now

TERRIERS

Track TERRIERS now!
10-day predictions
TERRIERS is classified as:


NORAD ID: 25735
Int'l Code: 1999-026A
Perigee: 436.9 km
Apogee: 443.8 km
Inclination: 97.2 °
Period: 93.2 minutes
Semi major axis: 6811 km
RCS: 0.4968 m2 (medium)
Launch date: May 18, 1999
Source: United States (US)
Launch site: Pegasus launched from Western Range Air Space (WRAS)
Your satellite tracking list
Your tracking list is empty





NASA's NSSDC Master Catalog

Two Line Element Set (TLE):
1 25735U 99026A   16341.88267333  .00002477  00000-0  55503-4 0  9995
2 25735  97.1614 144.0943 0005030  17.0282  88.0497 15.44377623976601
Source of the keplerian elements: AFSPC